Content
SEND FEEDBACK

Daily
Averages
Monthly
Summary
United States of America

GLASGOW, VIRGINIA


Home > North America > United States > Virginia
Elevation: 74 feet     Latitude: 37 37N     Longitude: 079 26W

WEATHER
 
SELECT A DAY
Number of Records: 211,763;   Date Range: 1/1/95 - 9/18/14
 
SHARE

PRINT THIS DATA

[ ← Previous Day ]
WEATHER ALMANAC - FEBRUARY 13, 2013
[ Next Day → ]
[ °C ]   °F
Weather ElementAverageHighLow
Temperature37.8 °F45 °F (1:54 am) (12:22 pm)
Dewpoint33.6 °F39.2 °F (1:30 pm) (7:00 pm)
Humidity84.9 %100 % (2:24 pm)52 % (1:54 am)
Barometer29.75 in29.90 in (1:54 am)29.64 in (3:26 pm)
Wind Speed4.3 mph8.1 mph (11:14 am)
Weather ElementAverage
Visibility6.2 mi
Wind DirectionENE (77.6 °)

Weather ElementTotal
Precipitation0.06 in
Heating Degree Days42.5 (Base 65)
Averaged from 34 records on February 13, 2013
WEATHER CONDITIONS BREAKOUT
WIND DIRECTION BREAKOUT
WEATHER BY HOUR - FEBRUARY 13, 2013
[ °C ]   °F
Local TimeTemperatureDewpointHumidityBarometerVisibilityWind DirectionWind SpeedGust SpeedPrecipitationEventsConditions
1:54 AM45.0 °F28.0 °F52 %29.90 in10.0 miSSW (210°)6.9 mphOvercast
2:54 AM45.0 °F34.0 °F65 %29.89 in10.0 miSSW (210°)5.8 mphOvercast
3:54 AM45.0 °F35.1 °F68 %29.85 in10.0 miCalmOvercast
4:54 AM43.0 °F36.0 °F76 %29.83 in10.0 miCalmOvercast
5:54 AM44.1 °F36.0 °F73 %29.81 in10.0 miNorth (10°)3.5 mphOvercast
6:54 AM45.0 °F35.1 °F68 %29.82 in10.0 miNE (40°)4.6 mphOvercast
7:54 AM44.1 °F33.1 °F65 %29.81 in10.0 miNNE (20°)6.9 mph0.00 inOvercast
8:54 AM44.6 °F33.8 °F66 %29.84 in10.0 miCalmRainLight Rain
9:54 AM44.1 °F34.0 °F68 %29.81 in10.0 miESE (110°)4.6 mph0.00 inRainLight Rain
10:19 AM44.6 °F37.4 °F76 %29.80 in10.0 miEast (90°)4.6 mph0.00 inRainLight Rain
10:54 AM43.0 °F37.0 °F80 %29.78 in10.0 miENE (70°)6.9 mph0.00 inRainLight Rain
11:14 AM42.8 °F35.6 °F76 %29.78 in9.0 miENE (60°)8.1 mph0.00 inRainLight Rain
11:54 AM39.9 °F37.0 °F89 %29.76 in9.0 miCalm0.00 inOvercast
12:22 PM0.0 °F0.0 °F29.74 in3.0 miNNE (20°)3.5 mph0.00 inRainLight Rain
12:29 PM0.0 °F0.0 °F29.74 in2.5 miNE (40°)4.6 mph0.00 inRainLight Rain
12:54 PM42.8 °F39.0 °F86 %29.71 in2.5 miNNE (20°)5.8 mph0.00 inOvercast
1:30 PM42.8 °F39.2 °F87 %29.67 in1.5 miNNE (30°)8.1 mph0.01 inOvercast
1:54 PM39.2 °F39.0 °F99 %29.67 in1.8 miNNE (20°)4.6 mph0.02 inOvercast
2:24 PM39.2 °F39.2 °F100 %29.66 in2.0 miNE (40°)4.6 mphOvercast
2:35 PM39.2 °F39.2 °F100 %29.65 in1.8 miNNE (20°)5.8 mphOvercast
2:54 PM39.2 °F39.0 °F99 %29.66 in1.5 miNNE (30°)6.9 mph0.01 inOvercast
3:26 PM39.2 °F37.4 °F93 %29.64 in2.0 miNE (40°)6.9 mphOvercast
3:39 PM39.2 °F37.4 °F93 %29.64 in1.5 miNorth (10°)4.6 mph0.00 inRainLight Rain
3:54 PM38.7 °F37.9 °F97 %29.65 in1.5 miNNE (30°)5.8 mph0.00 inOvercast
4:54 PM38.7 °F37.9 °F97 %29.65 in1.5 miNE (40°)4.6 mph0.01 inOvercast
5:54 PM40.8 °F37.9 °F89 %29.66 in1.5 miCalmOvercast
6:54 PM40.1 °F39.0 °F96 %29.68 in3.0 miCalm0.00 inRainLight Rain
7:54 PM40.1 °F39.0 °F96 %29.71 in6.0 miCalm0.01 inOvercast
8:17 PM39.2 °F39.2 °F100 %29.71 in5.0 miVariable3.5 mphOvercast
8:51 PM39.2 °F39.2 °F100 %29.72 in8.0 miWNW (290°)5.8 mphMostly Cloudy
8:54 PM39.7 °F39.0 °F97 %29.73 in9.0 miWest (280°)5.8 mphMostly Cloudy
9:54 PM38.8 °F37.0 °F93 %29.77 in7.0 miNW (310°)3.5 mphClear
10:54 PM37.9 °F35.1 °F89 %29.79 in10.0 miNW (320°)4.6 mphClear
11:54 PM0.0 °F0.0 °F29.80 in10.0 miWest (280°)5.8 mphClear
Hourly data recorded from KLYH, located miles away from Glasgow, Virginia







STORIES FROM OUR PARTNERS